| time (UTC) | temp F | wind direction | speed MPH | gust MPH | rain 1hr in | rain 24hr in | rain mn in | humidity % | barometer mb |
| 20260902164536 | 66 | 225 | 12.0 | 20.0 | 0.01 | 0.01 | 0.01 | 92 | 1018.1 |
| 20260902163516 | 65 | 225 | 9.0 | 18.0 | 0.01 | 0.01 | 0.01 | 91 | 1018.3 |
| 20260902162517 | 65 | 225 | 11.0 | 23.0 | 0.01 | 0.01 | 0.01 | 91 | |
| 20260902161517 | 65 | 248 | 12.0 | 23.0 | 0.01 | 0.01 | 0.01 | 91 | |
| 20260902160517 | 66 | 225 | 11.0 | 22.0 | 0.00 | 0.00 | 0.00 | 90 | |
| 20260902155515 | 66 | 225 | 8.0 | 17.0 | 0.00 | 0.00 | 0.00 | 89 | 1018.6 |
| 20260902154535 | 66 | 225 | 11.0 | 17.0 | 0.00 | 0.00 | 0.00 | 88 | 1018.7 |
| 20260902153537 | 66 | 225 | 8.0 | 19.0 | 0.00 | 0.00 | 0.00 | 86 | 1018.9 |
| 20260902152516 | 67 | 225 | 11.0 | 20.0 | 0.00 | 0.00 | 0.00 | 84 | 1019.1 |
| 20260902151515 | 68 | 225 | 11.0 | 22.0 | 0.00 | 0.00 | 0.00 | 80 | 1019.2 |
| 20260902150515 | 69 | 225 | 10.0 | 19.0 | 0.00 | 0.00 | 0.00 | 78 | 1019.3 |
| 20260902145515 | 69 | 248 | 9.0 | 19.0 | 0.00 | 0.00 | 0.00 | 75 | 1019.3 |
| 20260902144515 | 69 | 225 | 11.0 | 20.0 | 0.00 | 0.00 | 0.00 | 75 | 1019.1 |
| 20260902143515 | 69 | 248 | 10.0 | 18.0 | 0.00 | 0.00 | 0.00 | 75 | 1019.3 |
| 20260902142515 | 70 | 225 | 10.0 | 19.0 | 0.00 | 0.00 | 0.00 | 73 | 1019.3 |
| 20260902141515 | 70 | 225 | 8.0 | 21.0 | 0.00 | 0.00 | 0.00 | 72 | 1019.5 |
| 20260902140515 | 71 | 248 | 10.0 | 17.0 | 0.00 | 0.00 | 0.00 | 70 | 1019.5 |
| 20260902135517 | 71 | 225 | 11.0 | 23.0 | 0.00 | 0.00 | 0.00 | 67 | 1019.4 |
| 20260902134517 | 71 | 225 | 11.0 | 22.0 | 0.00 | 0.00 | 0.00 | 67 | 1019.4 |
| 20260902133517 | 71 | 225 | 10.0 | 20.0 | 0.00 | 0.00 | 0.00 | 69 | 1019.6 |
| 20260902132519 | 70 | 225 | 11.0 | 20.0 | 0.00 | 0.00 | 0.00 | 70 | 1019.7 |
| 20260902131518 | 70 | 225 | 9.0 | 15.0 | 0.00 | 0.00 | 0.00 | 72 | 1019.9 |
| 20260902130519 | 70 | 225 | 9.0 | 16.0 | 0.00 | 0.00 | 0.00 | 72 | 1019.8 |
| 20260902125600 | 69 | 225 | 9.0 | 19.0 | 0.00 | 0.00 | 0.00 | 72 | 1019.9 |
| 20260902124519 | 69 | 203 | 10.0 | 18.0 | 0.00 | 0.00 | 0.00 | 72 | 1020.0 |
| 20260902123517 | 69 | 225 | 9.0 | 15.0 | 0.00 | 0.00 | 0.00 | 73 | 1020.2 |
| 20260902122518 | 69 | 248 | 10.0 | 21.0 | 0.00 | 0.00 | 0.00 | 72 | 1020.2 |
| 20260902121537 | 68 | 225 | 9.0 | 21.0 | 0.00 | 0.00 | 0.00 | 71 | 1020.1 |
| 20260902120539 | 68 | 225 | 10.0 | 19.0 | 0.00 | 0.00 | 0.00 | 71 | 1020.2 |
| 20260902115519 | 68 | 225 | 8.0 | 17.0 | 0.00 | 0.00 | 0.00 | 72 | 1020.2 |
| 20260902114518 | 69 | 248 | 9.0 | 17.0 | 0.00 | 0.00 | 0.00 | 71 | 1020.2 |
| 20260902113519 | 69 | 225 | 9.0 | 18.0 | 0.00 | 0.00 | 0.00 | 73 | 1020.4 |
| 20260902112519 | 69 | 225 | 9.0 | 20.0 | 0.00 | 0.00 | 0.00 | 73 | 1020.3 |
| 20260902111517 | 69 | 225 | 7.0 | 12.0 | 0.00 | 0.00 | 0.00 | 74 | 1020.3 |
| 20260902110517 | 69 | 225 | 9.0 | 20.0 | 0.00 | 0.00 | 0.00 | 74 | 1020.4 |
| 20260902105517 | 69 | 248 | 8.0 | 17.0 | 0.00 | 0.00 | 0.00 | 75 | 1020.4 |
| 20260902104538 | 68 | 225 | 9.0 | 19.0 | 0.00 | 0.00 | 0.00 | 73 | 1020.4 |
| 20260902103519 | 68 | 225 | 10.0 | 19.0 | 0.00 | 0.00 | 0.00 | 76 | 1020.5 |
| 20260902102517 | 69 | 248 | 8.0 | 16.0 | 0.00 | 0.00 | 0.00 | 76 | 1020.5 |
| 20260902101519 | 69 | 225 | 7.0 | 14.0 | 0.00 | 0.00 | 0.00 | 76 | 1020.6 |
| 20260902100517 | 69 | 225 | 10.0 | 17.0 | 0.00 | 0.00 | 0.00 | 76 | 1020.6 |
| 20260902095518 | 69 | 248 | 9.0 | 17.0 | 0.00 | 0.00 | 0.00 | 76 | 1020.6 |
| 20260902094517 | 69 | 248 | 7.0 | 17.0 | 0.00 | 0.00 | 0.00 | 77 | 1020.6 |
| 20260902093517 | 69 | 225 | 7.0 | 16.0 | 0.00 | 0.00 | 0.00 | 78 | 1020.6 |
| 20260902092517 | 69 | 225 | 7.0 | 18.0 | 0.00 | 0.00 | 0.00 | 78 | 1020.5 |
| 20260902091518 | 68 | 248 | 7.0 | 14.0 | 0.00 | 0.00 | 0.00 | 78 | 1020.5 |
| 20260902090537 | 68 | 203 | 8.0 | 15.0 | 0.00 | 0.00 | 0.00 | 78 | 1020.3 |
| 20260902085517 | 68 | 225 | 8.0 | 17.0 | 0.00 | 0.00 | 0.00 | 80 | 1020.3 |
| 20260902084517 | 67 | 248 | 7.0 | 13.0 | 0.00 | 0.00 | 0.00 | 81 | 1020.3 |
| 20260902083540 | 68 | 225 | 8.0 | 13.0 | 0.00 | 0.00 | 0.00 | 79 | 1020.2 |
| 20260902082538 | 68 | 248 | 6.0 | 12.0 | 0.00 | 0.00 | 0.00 | 79 | 1020.1 |
| 20260902081538 | 68 | 225 | 5.0 | 11.0 | 0.00 | 0.00 | 0.00 | 79 | 1020.0 |
| 20260902080518 | 68 | 225 | 6.0 | 11.0 | 0.00 | 0.00 | 0.00 | 79 | 1020.0 |
| 20260902075517 | 68 | 225 | 6.0 | 12.0 | 0.00 | 0.00 | 0.00 | 80 | 1020.0 |
| 20260902074537 | 67 | 225 | 6.0 | 12.0 | 0.00 | 0.00 | 0.00 | 80 | 1020.0 |
| 20260902073516 | 67 | 248 | 4.0 | 9.0 | 0.00 | 0.00 | 0.00 | 80 | 1019.8 |
| 20260902072517 | 67 | 248 | 5.0 | 11.0 | 0.00 | 0.00 | 0.00 | 80 | 1019.7 |
| 20260902071517 | 67 | 248 | 4.0 | 11.0 | 0.00 | 0.00 | 0.00 | 81 | 1019.8 |
| 20260902070517 | 66 | 225 | 4.0 | 11.0 | 0.00 | 0.00 | 0.00 | 81 | 1019.8 |
| 20260902065518 | 66 | 225 | 5.0 | 12.0 | 0.00 | 0.00 | 0.00 | 80 | 1019.8 |
| 20260902064516 | 66 | 248 | 5.0 | 10.0 | 0.00 | 0.00 | 0.00 | 82 | 1019.8 |
| 20260902063518 | 65 | 225 | 5.0 | 12.0 | 0.00 | 0.00 | 0.00 | 83 | 1019.7 |
| 20260902062517 | 65 | 248 | 4.0 | 8.0 | 0.00 | 0.00 | 0.00 | 84 | 1019.8 |
| 20260902061539 | 64 | 248 | 3.0 | 7.0 | 0.00 | 0.00 | 0.00 | 84 | 1019.7 |
| 20260902060518 | 64 | 225 | 4.0 | 8.0 | 0.00 | 0.00 | 0.00 | 84 | 1019.6 |
| 20260902055518 | 64 | 225 | 4.0 | 8.0 | 0.00 | 0.00 | 0.00 | 85 | 1019.6 |
| 20260902054516 | 64 | 248 | 4.0 | 10.0 | 0.00 | 0.00 | 0.00 | 85 | 1019.5 |
| 20260902053516 | 64 | 248 | 4.0 | 8.0 | 0.00 | 0.00 | 0.00 | 85 | 1019.5 |
| 20260902052536 | 64 | 225 | 4.0 | 12.0 | 0.00 | 0.00 | 0.00 | 86 | 1019.4 |
| 20260902051517 | 64 | 248 | 3.0 | 8.0 | 0.00 | 0.00 | 0.00 | 86 | 1019.5 |
| 20260902050516 | 64 | 248 | 3.0 | 7.0 | 0.00 | 0.00 | 0.00 | 86 | 1019.5 |
| 20260902045519 | 64 | 248 | 3.0 | 7.0 | 0.00 | 0.00 | 0.00 | 87 | 1019.7 |
| 20260902044517 | 64 | 248 | 3.0 | 7.0 | 0.00 | 0.00 | 0.00 | 87 | 1019.5 |
| 20260902043518 | 64 | 225 | 3.0 | 8.0 | 0.00 | 0.00 | 0.00 | 87 | 1019.5 |
| 20260902042518 | 0 | 248 | 3.0 | 8.0 | 0.00 | 0.00 | 0.00 | ||
| 20260902041516 | 0 | 225 | 2.0 | 6.0 | 0.00 | 0.00 | 0.00 | ||
| 20260902040516 | 0 | 270 | 2.0 | 5.0 | 0.00 | 0.00 | 0.00 | ||
| 20260902035516 | 0 | 248 | 2.0 | 5.0 | 0.00 | 0.00 | 0.00 | ||
| 20260902034517 | 0 | 248 | 2.0 | 6.0 | 0.00 | 0.00 | 0.00 | ||
| 20260902033535 | 64 | 225 | 1.0 | 4.0 | 0.00 | 0.00 | 0.00 | 86 | |
| 20260902032516 | 64 | 270 | 1.0 | 4.0 | 0.00 | 0.00 | 0.00 | 86 | 1019.6 |
| 20260902031516 | 64 | 225 | 2.0 | 5.0 | 0.00 | 0.00 | 0.00 | 86 | 1019.7 |
| 20260902030516 | 64 | 270 | 2.0 | 5.0 | 0.00 | 0.00 | 0.00 | 86 | 1019.9 |
| 20260902025516 | 64 | 225 | 2.0 | 6.0 | 0.00 | 0.00 | 0.00 | 86 | 1020.0 |
| 20260902024519 | 64 | 248 | 1.0 | 4.0 | 0.00 | 0.00 | 0.00 | 86 | 1020.2 |
| 20260902023516 | 64 | 293 | 2.0 | 6.0 | 0.00 | 0.00 | 0.00 | 86 | 1020.0 |
| 20260902022538 | 64 | 225 | 1.0 | 4.0 | 0.00 | 0.00 | 0.00 | 86 | 1020.0 |
| 20260902021516 | 64 | 270 | 1.0 | 4.0 | 0.00 | 0.00 | 0.00 | 86 | 1020.1 |
| 20260902020516 | 64 | 0.0 | 4.0 | 0.00 | 0.00 | 0.00 | 86 | 1020.1 | |
| 20260902015516 | 64 | 0.0 | 0.0 | 0.00 | 0.00 | 0.00 | 86 | 1020.1 | |
| 20260902014518 | 64 | 315 | 2.0 | 4.0 | 0.00 | 0.00 | 0.00 | 86 | 1020.3 |
| 20260902013516 | 64 | 0.0 | 2.0 | 0.00 | 0.00 | 0.00 | 87 | 1020.3 | |
| 20260902012536 | 64 | 270 | 1.0 | 6.0 | 0.00 | 0.00 | 0.00 | 87 | 1020.3 |
| 20260902011516 | 64 | 315 | 2.0 | 6.0 | 0.00 | 0.00 | 0.00 | 87 | 1020.2 |
| 20260902010516 | 64 | 293 | 2.0 | 6.0 | 0.00 | 0.00 | 0.00 | 87 | 1020.4 |
| 20260902005516 | 64 | 270 | 2.0 | 6.0 | 0.00 | 0.00 | 0.00 | 87 | 1020.5 |
| 20260902004517 | 64 | 270 | 1.0 | 4.0 | 0.00 | 0.00 | 0.00 | 87 | 1020.6 |
| 20260902003518 | 64 | 315 | 2.0 | 5.0 | 0.00 | 0.00 | 0.00 | 87 | 1020.6 |
| 20260902002516 | 64 | 0.0 | 0.0 | 0.00 | 0.00 | 0.00 | 87 | 1020.5 | |
| 20260902001517 | 64 | 293 | 1.0 | 3.0 | 0.00 | 0.00 | 0.00 | 87 | 1020.3 |
| 20260902000538 | 64 | 293 | 2.0 | 7.0 | 0.00 | 0.00 | 0.00 | 87 | 1020.4 |
| 20260901235519 | 64 | 315 | 2.0 | 4.0 | 0.00 | 0.00 | 0.00 | 87 | 1020.4 |
| 20260901234540 | 64 | 315 | 2.0 | 4.0 | 0.00 | 0.00 | 0.00 | 86 | 1020.5 |
| 20260901233516 | 64 | 315 | 2.0 | 4.0 | 0.00 | 0.00 | 0.00 | 86 | 1020.5 |
| 20260901232536 | 64 | 315 | 2.0 | 5.0 | 0.00 | 0.00 | 0.00 | 86 | 1020.5 |
| 20260901231516 | 64 | 248 | 1.0 | 6.0 | 0.00 | 0.00 | 0.00 | 86 | 1020.4 |
| 20260901230517 | 64 | 270 | 1.0 | 3.0 | 0.00 | 0.00 | 0.00 | 86 | 1020.4 |
| 20260901225536 | 64 | 0.0 | 3.0 | 0.00 | 0.00 | 0.00 | 86 | 1020.5 | |
| 20260901224516 | 64 | 270 | 1.0 | 4.0 | 0.00 | 0.00 | 0.00 | 86 | 1020.6 |
| 20260901223516 | 64 | 0.0 | 3.0 | 0.00 | 0.00 | 0.00 | 85 | 1020.6 | |
| 20260901222516 | 64 | 248 | 1.0 | 5.0 | 0.00 | 0.00 | 0.00 | 85 | 1020.6 |
| 20260901221536 | 64 | 248 | 1.0 | 5.0 | 0.00 | 0.00 | 0.00 | 85 | 1020.6 |
| 20260901220516 | 64 | 270 | 1.0 | 5.0 | 0.00 | 0.00 | 0.00 | 85 | 1020.6 |
| 20260901215517 | 64 | 293 | 2.0 | 6.0 | 0.00 | 0.00 | 0.00 | 85 | 1020.6 |
| 20260901214515 | 64 | 315 | 2.0 | 5.0 | 0.00 | 0.00 | 0.00 | 84 | 1020.7 |
| 20260901213516 | 65 | 293 | 2.0 | 4.0 | 0.00 | 0.00 | 0.00 | 84 | 1020.7 |
| 20260901212517 | 65 | 315 | 2.0 | 6.0 | 0.00 | 0.00 | 0.00 | 84 | 1020.6 |
| 20260901211522 | 65 | 315 | 2.0 | 7.0 | 0.00 | 0.00 | 0.00 | 83 | 1020.7 |
| 20260901210516 | 65 | 270 | 2.0 | 6.0 | 0.00 | 0.00 | 0.00 | 83 | 1020.8 |
| 20260901205517 | 65 | 270 | 2.0 | 4.0 | 0.00 | 0.00 | 0.00 | 82 | 1020.9 |
| 20260901204515 | 65 | 225 | 2.0 | 7.0 | 0.00 | 0.00 | 0.00 | 81 | 1020.8 |
| 20260901203516 | 65 | 248 | 1.0 | 7.0 | 0.00 | 0.00 | 0.00 | 81 | 1020.7 |
| 20260901202535 | 65 | 248 | 2.0 | 6.0 | 0.00 | 0.00 | 0.00 | 80 | 1020.7 |
| 20260901201536 | 65 | 248 | 2.0 | 6.0 | 0.00 | 0.00 | 0.00 | 79 | 1020.8 |
| 20260901200517 | 65 | 248 | 3.0 | 5.0 | 0.00 | 0.00 | 0.00 | 79 | 1020.7 |
| 20260901195516 | 65 | 248 | 3.0 | 7.0 | 0.00 | 0.00 | 0.00 | 78 | 1020.7 |
| 20260901194537 | 65 | 248 | 3.0 | 7.0 | 0.00 | 0.00 | 0.00 | 77 | 1020.7 |
| 20260901193515 | 65 | 225 | 3.0 | 5.0 | 0.00 | 0.00 | 0.00 | 76 | 1020.6 |
| 20260901192537 | 65 | 225 | 2.0 | 6.0 | 0.00 | 0.00 | 0.00 | 75 | 1020.6 |
| 20260901191517 | 65 | 248 | 2.0 | 6.0 | 0.00 | 0.00 | 0.00 | 75 | 1020.6 |
| 20260901190515 | 65 | 248 | 3.0 | 9.0 | 0.00 | 0.00 | 0.00 | 74 | 1020.6 |
| 20260901185517 | 65 | 270 | 3.0 | 9.0 | 0.00 | 0.00 | 0.00 | 74 | 1020.7 |
| 20260901184537 | 66 | 248 | 3.0 | 6.0 | 0.00 | 0.00 | 0.00 | 73 | 1020.7 |
| 20260901183516 | 66 | 248 | 4.0 | 9.0 | 0.00 | 0.00 | 0.00 | 72 | 1020.7 |
| 20260901182515 | 67 | 270 | 3.0 | 8.0 | 0.00 | 0.00 | 0.00 | 71 | 1020.6 |
| 20260901181517 | 67 | 248 | 4.0 | 8.0 | 0.00 | 0.00 | 0.00 | 71 | 1020.6 |
| 20260901180515 | 67 | 248 | 5.0 | 9.0 | 0.00 | 0.00 | 0.00 | 69 | 1020.3 |
| 20260901175515 | 68 | 248 | 3.0 | 7.0 | 0.00 | 0.00 | 0.00 | 70 | 1020.5 |
| 20260901174515 | 68 | 248 | 4.0 | 9.0 | 0.00 | 0.00 | 0.00 | 70 | 1020.4 |
| 20260901173515 | 69 | 248 | 4.0 | 9.0 | 0.00 | 0.00 | 0.00 | 69 | 1020.5 |
| 20260901172517 | 69 | 270 | 5.0 | 10.0 | 0.00 | 0.00 | 0.00 | 70 | 1020.6 |
| 20260901171517 | 69 | 248 | 7.0 | 14.0 | 0.00 | 0.00 | 0.00 | 69 | 1020.5 |
| 20260901170518 | 69 | 225 | 5.0 | 12.0 | 0.00 | 0.00 | 0.00 | 69 | 1020.5 |
| 20260901165535 | 69 | 225 | 7.0 | 14.0 | 0.00 | 0.00 | 0.00 | 69 | 1020.5 |